Location: F M Corners
(41.2198°N, 80.4709°W)
Time: 17:50:54
(UTC+00:00)

Cosmos 1656 - Pass Details

Date: 29 October 2020
Orbit: 796 x 851 km, 71.1° (Epoch: 27 November)

Event Time Altitude Azimuth Distance (km) Brightness Sun altitude
Rises 23:17:35 0° 206° (SSW) 3,330 7.3 -11.3°
Reaches altitude 10° 23:19:59 10° 208° (SSW) 2,410 6.6 -11.8°
Maximum altitude 23:25:31 77° 294° (WNW) 856 3.8 -12.8°
Drops below altitude 10° 23:31:10 10° 21° (NNE) 2,462 5.9 -13.8°
Sets 23:33:39 0° 23° (NNE) 3,407 6.6 -14.3°
